User: anonymous   Login
Location: Chrząstowo
(52.0654°N, 17.1290°E)
Time: 13:26:59
(UTC+01:00)
Language:

YUBILEINY - Orbit

View from above orbital plane
View from above orbital plane
View from above satellite
View from above satellite

Ground track
Ground track

The orbit data is extracted from the following two-line orbital elements,

1 32953U 08025A   20049.07387044  .00000037  00000-0  19437-3 0  9992
2 32953  82.5073 352.7757 0018891 320.1250  39.8438 12.43094359532673
Epoch (UTC): 18 February 2020 01:46:22
Eccentricity: 0.0018891
inclination: 82.5073°
perigee height: 1478 km
apogee height: 1508 km
right ascension of ascending node: 352.7757°
argument of perigee: 320.1250°
revolutions per day: 12.43094359
mean anomaly at epoch: 39.8438°
orbit number at epoch: 53267

The dashed part of the orbit path shows where the satellite is in the earth's shadow,  

DLR